{"data":{"norad_id":59680,"intl_designator":"2024-085D","name":"2024-085D","alt_names":[],"object_type":"PAYLOAD","status":"ACTIVE","operator":null,"country":"PRC","launch_date":"2024-05-07","launch_site_code":"TAISC","launch_vehicle":null,"mission":null,"orbit_class":"UNKNOWN","rcs_meters":null,"size_class":null,"mass_kg":null,"dimensions":null,"purposes":[],"wikipedia_slug":null,"has_3d_model":false,"image_url":null,"decayed_at":null,"tle_current":{"epoch":"2026-09-22T23:46:59.643840Z","epoch_age_seconds":55099,"freshness":"FRESH","line1":"1 59680U 24085D   26265.99096810  .00009216  00000+0  24960-3 0  9991","line2":"2 59680  97.3167 341.3387 0013838  67.2164 293.0541 15.37795058132685","mean_motion":15.37795058,"eccentricity":0.0013838,"inclination_deg":97.3167,"raan_deg":341.3387,"arg_perigee_deg":67.2164,"mean_anomaly_deg":293.0541,"bstar":0.0002496,"rev_number":13268,"period_min":93.640566245076,"perigee_km":443.17856515074,"apogee_km":462.0833986174,"semimajor_km":6830.7679818841,"source":"CELESTRAK","updated_at":"2026-09-23T09:00:19.520371Z"}}}